Time,TemperatureF,DewpointF,PressureIn,WindDirection,WindDirectionDegrees,WindSpeedMPH,WindSpeedGustMPH,Humidity,HourlyPrecipIn,Conditions,Clouds,dailyrainin,SoftwareType,DateUTC
2013-09-02 00:03:00,71.6,69.2,29.43,WSW,241,2.0,2.0,92,0.00,,,0.01,Wunderground v.1.15,2013-09-02 04:03:00,
2013-09-02 00:08:00,71.5,69.4,29.45,WSW,249,1.0,4.0,93,0.00,,,0.00,Wunderground v.1.15,2013-09-02 04:08:00,
2013-09-02 13:19:00,76.9,70.6,29.37,WSW,247,3.0,5.0,81,0.00,,,1.24,Wunderground v.1.15,2013-09-02 17:19:00,
2013-09-02 13:24:00,76.9,70.6,29.37,SW,234,3.0,5.0,81,0.00,,,1.24,Wunderground v.1.15,2013-09-02 17:24:00,
2013-09-02 13:29:00,77.2,70.5,29.38,WSW,240,3.0,3.0,80,0.00,,,1.24,Wunderground v.1.15,2013-09-02 17:29:00,
2013-09-02 13:34:00,77.7,71.8,29.38,SW,215,2.0,7.0,82,0.00,,,1.24,Wunderground v.1.15,2013-09-02 17:34:00,
2013-09-02 13:39:00,77.9,71.2,29.38,SW,235,2.0,6.0,80,0.00,,,1.24,Wunderground v.1.15,2013-09-02 17:39:00,
2013-09-02 13:44:00,77.9,71.2,29.37,WSW,237,4.0,6.0,80,0.00,,,1.24,Wunderground v.1.15,2013-09-02 17:44:00,
2013-09-02 13:49:00,77.8,71.1,29.37,SW,236,5.0,5.0,80,0.00,,,1.24,Wunderground v.1.15,2013-09-02 17:49:00,
2013-09-02 13:54:00,77.8,71.1,29.36,West,260,5.0,6.0,80,0.00,,,1.24,Wunderground v.1.15,2013-09-02 17:54:00,
2013-09-02 13:59:00,78.1,71.8,29.36,WSW,251,4.0,4.0,81,0.00,,,1.24,Wunderground v.1.15,2013-09-02 17:59:00,
2013-09-02 14:04:00,78.5,71.8,29.36,WSW,246,3.0,4.0,80,0.00,,,1.24,Wunderground v.1.15,2013-09-02 18:04:00,
2013-09-02 14:09:00,78.8,71.4,29.36,WSW,254,3.0,4.0,78,0.00,,,1.24,Wunderground v.1.15,2013-09-02 18:09:00,
2013-09-02 14:14:00,79.0,71.6,29.35,WSW,257,3.0,6.0,78,0.00,,,1.24,Wunderground v.1.15,2013-09-02 18:14:00,
2013-09-02 14:19:00,79.2,71.4,29.35,West,269,3.0,6.0,77,0.00,,,1.24,Wunderground v.1.15,2013-09-02 18:19:00,
2013-09-02 14:24:00,79.2,71.0,29.36,WSW,257,3.0,5.0,76,0.00,,,1.24,Wunderground v.1.15,2013-09-02 18:24:00,
2013-09-02 14:29:00,79.0,70.8,29.35,WSW,239,3.0,5.0,76,0.00,,,1.24,Wunderground v.1.15,2013-09-02 18:29:00,
2013-09-02 14:34:00,78.6,70.8,29.35,SW,227,4.0,6.0,77,0.00,,,1.24,Wunderground v.1.15,2013-09-02 18:34:00,
2013-09-02 14:39:00,79.1,71.6,29.34,SW,229,4.0,6.0,78,0.00,,,1.24,Wunderground v.1.15,2013-09-02 18:39:00,
2013-09-02 14:44:00,79.6,71.4,29.34,WSW,245,3.0,6.0,76,0.00,,,1.24,Wunderground v.1.15,2013-09-02 18:44:00,
2013-09-02 14:49:00,79.8,70.8,29.34,NW,307,4.0,6.0,74,0.00,,,1.24,Wunderground v.1.15,2013-09-02 18:49:00,
2013-09-02 14:54:00,80.0,71.8,29.33,WNW,294,3.0,3.0,76,0.00,,,1.24,Wunderground v.1.15,2013-09-02 18:54:00,
2013-09-02 14:59:00,79.8,70.8,29.33,West,278,4.0,4.0,74,0.00,,,1.24,Wunderground v.1.15,2013-09-02 18:59:00,
2013-09-02 15:04:00,79.8,71.6,29.33,WSW,247,5.0,5.0,76,0.00,,,1.24,Wunderground v.1.15,2013-09-02 19:04:00,
2013-09-02 15:09:00,79.8,70.8,29.32,SW,236,4.0,5.0,74,0.00,,,1.24,Wunderground v.1.15,2013-09-02 19:09:00,
2013-09-02 15:14:00,79.9,70.9,29.33,WSW,240,5.0,5.0,74,0.00,,,1.24,Wunderground v.1.15,2013-09-02 19:14:00,
2013-09-02 15:24:00,80.2,69.9,29.32,WSW,244,4.0,5.0,71,0.00,,,1.24,Wunderground v.1.15,2013-09-02 19:24:00,
2013-09-02 15:29:00,80.1,70.7,29.32,WSW,251,4.0,5.0,73,0.00,,,1.24,Wunderground v.1.15,2013-09-02 19:29:00,
2013-09-02 15:34:00,80.1,70.3,29.32,WSW,250,4.0,7.0,72,0.00,,,1.24,Wunderground v.1.15,2013-09-02 19:34:00,
2013-09-02 15:39:00,79.8,70.0,29.32,West,259,5.0,7.0,72,0.00,,,1.24,Wunderground v.1.15,2013-09-02 19:39:00,
2013-09-02 15:44:00,79.1,69.7,29.32,WSW,255,5.0,5.0,73,0.00,,,1.24,Wunderground v.1.15,2013-09-02 19:44:00,
2013-09-02 15:49:00,78.8,70.6,29.31,West,259,3.0,5.0,76,0.00,,,1.24,Wunderground v.1.15,2013-09-02 19:49:00,
2013-09-02 15:54:00,78.2,70.4,29.31,West,264,3.0,8.0,77,0.00,,,1.24,Wunderground v.1.15,2013-09-02 19:54:00,
2013-09-02 15:59:00,77.7,70.3,29.31,WSW,251,4.0,8.0,78,0.00,,,1.24,Wunderground v.1.15,2013-09-02 19:59:00,
2013-09-02 16:04:00,77.4,70.4,29.30,WSW,238,4.0,5.0,79,0.00,,,1.24,Wunderground v.1.15,2013-09-02 20:04:00,
2013-09-02 16:09:00,77.3,70.6,29.29,WSW,244,4.0,5.0,80,0.00,,,1.24,Wunderground v.1.15,2013-09-02 20:09:00,
2013-09-02 16:19:00,78.3,71.2,29.29,WSW,252,3.0,6.0,79,0.00,,,1.24,Wunderground v.1.15,2013-09-02 20:19:00,
2013-09-02 16:24:00,79.1,71.6,29.30,WSW,252,4.0,4.0,78,0.00,,,1.24,Wunderground v.1.15,2013-09-02 20:24:00,
2013-09-02 16:29:00,79.2,71.7,29.30,WSW,244,3.0,4.0,78,0.00,,,1.24,Wunderground v.1.15,2013-09-02 20:29:00,
2013-09-02 16:34:00,79.0,71.2,29.31,WSW,244,1.0,1.0,77,0.00,,,1.24,Wunderground v.1.15,2013-09-02 20:34:00,
2013-09-02 16:39:00,78.6,70.4,29.30,WSW,247,1.0,4.0,76,0.00,,,1.24,Wunderground v.1.15,2013-09-02 20:39:00,
2013-09-02 16:44:00,78.3,70.9,29.29,WSW,247,1.0,4.0,78,0.00,,,1.24,Wunderground v.1.15,2013-09-02 20:44:00,